| time (UTC) | temp F | wind direction | speed MPH | gust MPH | rain 1hr in | rain 24hr in | rain mn in | humidity % | barometer mb |
| 20260831191431 | 66 | 235 | 4.0 | 9.0 | 0.00 | 0.06 | 0.06 | 82 | 1015.6 |
| 20260831191417 | 66 | 181 | 4.0 | 10.0 | 0.00 | 0.06 | 0.06 | 82 | 1015.5 |
| 20260831190433 | 66 | 212 | 5.0 | 10.0 | 0.00 | 0.06 | 0.06 | 82 | 1015.4 |
| 20260831190418 | 66 | 242 | 5.0 | 10.0 | 0.00 | 0.06 | 0.06 | 81 | 1015.4 |
| 20260831185915 | 66 | 204 | 4.0 | 10.0 | 0.00 | 0.06 | 0.06 | 81 | 1015.4 |
| 20260831184931 | 66 | 205 | 4.0 | 8.0 | 0.00 | 0.06 | 0.06 | 81 | 1015.3 |
| 20260831184430 | 66 | 229 | 4.0 | 9.0 | 0.00 | 0.06 | 0.06 | 80 | 1015.3 |
| 20260831183932 | 66 | 210 | 4.0 | 9.0 | 0.00 | 0.06 | 0.06 | 80 | 1015.3 |
| 20260831183431 | 66 | 254 | 4.0 | 8.0 | 0.00 | 0.06 | 0.06 | 80 | 1015.2 |
| 20260831182931 | 66 | 225 | 5.0 | 12.0 | 0.00 | 0.06 | 0.06 | 80 | 1015.0 |
| 20260831182432 | 66 | 240 | 5.0 | 12.0 | 0.00 | 0.06 | 0.06 | 80 | 1015.1 |
| 20260831181932 | 66 | 241 | 5.0 | 11.0 | 0.00 | 0.06 | 0.06 | 79 | 1014.9 |
| 20260831181434 | 66 | 197 | 6.0 | 12.0 | 0.00 | 0.06 | 0.06 | 79 | 1014.8 |
| 20260831180932 | 66 | 243 | 7.0 | 13.0 | 0.00 | 0.06 | 0.06 | 79 | 1014.8 |
| 20260831180432 | 66 | 224 | 7.0 | 13.0 | 0.00 | 0.06 | 0.06 | 79 | 1014.6 |
| 20260831175931 | 67 | 240 | 7.0 | 14.0 | 0.00 | 0.06 | 0.06 | 79 | 1014.6 |
| 20260831175430 | 67 | 210 | 9.0 | 19.0 | 0.00 | 0.06 | 0.06 | 79 | 1014.5 |
| 20260831174931 | 67 | 230 | 8.0 | 19.0 | 0.00 | 0.06 | 0.06 | 79 | 1014.5 |
| 20260831174430 | 67 | 232 | 8.0 | 17.0 | 0.00 | 0.06 | 0.06 | 79 | 1014.5 |
| 20260831173932 | 67 | 204 | 9.0 | 17.0 | 0.00 | 0.06 | 0.06 | 79 | 1014.3 |
| 20260831173432 | 67 | 237 | 9.0 | 17.0 | 0.00 | 0.06 | 0.06 | 79 | 1014.2 |
| 20260831172933 | 67 | 255 | 10.0 | 17.0 | 0.00 | 0.06 | 0.06 | 80 | 1014.3 |
| 20260831172432 | 67 | 232 | 10.0 | 17.0 | 0.00 | 0.06 | 0.06 | 80 | 1014.2 |
| 20260831171933 | 67 | 245 | 9.0 | 15.0 | 0.00 | 0.06 | 0.06 | 81 | 1014.2 |
| 20260831171432 | 66 | 235 | 8.0 | 15.0 | 0.00 | 0.06 | 0.06 | 83 | 1014.0 |
| 20260831170933 | 66 | 229 | 8.0 | 15.0 | 0.01 | 0.06 | 0.06 | 84 | 1014.0 |
| 20260831170436 | 66 | 241 | 8.0 | 13.0 | 0.01 | 0.06 | 0.06 | 85 | 1013.8 |
| 20260831165932 | 65 | 233 | 6.0 | 14.0 | 0.01 | 0.06 | 0.06 | 86 | 1013.8 |
| 20260831165432 | 65 | 239 | 4.0 | 14.0 | 0.01 | 0.06 | 0.06 | 86 | 1013.7 |
| 20260831164928 | 65 | 253 | 4.0 | 9.0 | 0.01 | 0.06 | 0.06 | 86 | 1013.7 |
| 20260831164427 | 65 | 249 | 5.0 | 9.0 | 0.01 | 0.06 | 0.06 | 86 | 1013.8 |
| 20260831163928 | 65 | 248 | 5.0 | 12.0 | 0.01 | 0.06 | 0.06 | 86 | 1013.7 |
| 20260831163915 | 65 | 262 | 6.0 | 12.0 | 0.01 | 0.06 | 0.06 | 85 | 1013.7 |
| 20260831163407 | 65 | 212 | 7.0 | 14.0 | 0.01 | 0.06 | 0.06 | 84 | 1013.6 |
| 20260831162430 | 65 | 237 | 9.0 | 15.0 | 0.01 | 0.06 | 0.06 | 83 | 1013.5 |
| 20260831161931 | 65 | 233 | 10.0 | 18.0 | 0.01 | 0.06 | 0.06 | 82 | 1013.6 |
| 20260831161430 | 66 | 234 | 11.0 | 21.0 | 0.01 | 0.06 | 0.06 | 81 | 1013.6 |
| 20260831160930 | 67 | 252 | 12.0 | 27.0 | 0.00 | 0.06 | 0.06 | 79 | 1013.6 |
| 20260831160428 | 68 | 241 | 12.0 | 27.0 | 0.00 | 0.06 | 0.06 | 77 | 1013.4 |
| 20260831155931 | 68 | 231 | 12.0 | 25.0 | 0.00 | 0.06 | 0.06 | 75 | 1013.3 |
| 20260831155428 | 68 | 270 | 12.0 | 25.0 | 0.00 | 0.06 | 0.06 | 74 | 1013.2 |
| 20260831154931 | 69 | 231 | 12.0 | 25.0 | 0.00 | 0.06 | 0.06 | 74 | 1013.1 |
| 20260831154919 | 69 | 187 | 12.0 | 25.0 | 0.00 | 0.06 | 0.06 | 74 | 1013.1 |
| 20260831153929 | 68 | 247 | 11.0 | 20.0 | 0.00 | 0.06 | 0.06 | 75 | 1013.0 |
| 20260831153428 | 68 | 250 | 11.0 | 20.0 | 0.00 | 0.06 | 0.06 | 76 | 1012.9 |
| 20260831152928 | 68 | 216 | 12.0 | 24.0 | 0.00 | 0.06 | 0.06 | 77 | 1013.0 |
| 20260831152428 | 68 | 211 | 12.0 | 24.0 | 0.00 | 0.06 | 0.06 | 76 | 1012.9 |
| 20260831151929 | 68 | 234 | 11.0 | 23.0 | 0.00 | 0.06 | 0.06 | 76 | 1012.9 |
| 20260831151918 | 68 | 230 | 10.0 | 23.0 | 0.00 | 0.06 | 0.06 | 76 | 1012.8 |
| 20260831150926 | 68 | 252 | 12.0 | 25.0 | 0.00 | 0.06 | 0.06 | 76 | 1012.7 |
| 20260831150905 | 68 | 249 | 12.0 | 24.0 | 0.00 | 0.06 | 0.06 | 74 | 1012.6 |
| 20260831150630 | 68 | 265 | 12.0 | 25.0 | 0.00 | 0.06 | 0.06 | 75 | 1012.7 |
| 20260831145913 | 69 | 235 | 14.0 | 25.0 | 0.00 | 0.06 | 0.06 | 74 | 1012.6 |
| 20260831144923 | 68 | 249 | 14.0 | 25.0 | 0.00 | 0.06 | 0.06 | 75 | 1012.6 |
| 20260831144424 | 68 | 223 | 15.0 | 26.0 | 0.00 | 0.06 | 0.06 | 74 | 1012.5 |
| 20260831143924 | 68 | 243 | 15.0 | 26.0 | 0.00 | 0.06 | 0.06 | 73 | 1012.5 |
| 20260831143915 | 69 | 254 | 13.0 | 26.0 | 0.00 | 0.06 | 0.06 | 72 | 1012.3 |
| 20260831142923 | 68 | 208 | 12.0 | 21.0 | 0.00 | 0.06 | 0.06 | 75 | 1012.3 |
| 20260831142423 | 68 | 241 | 13.0 | 27.0 | 0.00 | 0.06 | 0.06 | 75 | 1012.2 |
| 20260831141921 | 68 | 214 | 14.0 | 27.0 | 0.00 | 0.06 | 0.06 | 74 | 1012.1 |
| 20260831141416 | 68 | 231 | 13.0 | 28.0 | 0.00 | 0.06 | 0.06 | 73 | 1012.0 |
| 20260831140913 | 68 | 206 | 12.0 | 28.0 | 0.00 | 0.06 | 0.06 | 71 | 1011.9 |
| 20260831140857 | 69 | 229 | 13.0 | 27.0 | 0.00 | 0.06 | 0.06 | 70 | 1011.8 |
| 20260831140356 | 69 | 275 | 13.0 | 27.0 | 0.00 | 0.06 | 0.06 | 69 | 1011.6 |
| 20260831135414 | 69 | 214 | 12.0 | 27.0 | 0.00 | 0.06 | 0.06 | 70 | 1011.4 |
| 20260831135346 | 69 | 216 | 14.0 | 29.0 | 0.00 | 0.06 | 0.06 | 70 | 1011.4 |
| 20260831134414 | 69 | 235 | 14.0 | 29.0 | 0.00 | 0.06 | 0.06 | 69 | 1011.4 |
| 20260831133911 | 69 | 229 | 11.0 | 26.0 | 0.00 | 0.06 | 0.06 | 69 | 1011.4 |
| 20260831133410 | 70 | 242 | 13.0 | 30.0 | 0.00 | 0.06 | 0.06 | 70 | 1011.4 |
| 20260831132910 | 69 | 233 | 16.0 | 30.0 | 0.00 | 0.06 | 0.06 | 70 | 1011.2 |
| 20260831132410 | 69 | 180 | 16.0 | 30.0 | 0.00 | 0.06 | 0.06 | 69 | 1011.3 |
| 20260831132358 | 69 | 239 | 15.0 | 29.0 | 0.00 | 0.06 | 0.06 | 70 | 1011.3 |
| 20260831131410 | 70 | 239 | 14.0 | 31.0 | 0.00 | 0.06 | 0.06 | 68 | 1011.1 |
| 20260831130908 | 70 | 229 | 13.0 | 31.0 | 0.00 | 0.06 | 0.06 | 70 | 1011.0 |
| 20260831130404 | 69 | 233 | 11.0 | 20.0 | 0.00 | 0.06 | 0.06 | 74 | 1011.0 |
| 20260831125906 | 67 | 216 | 13.0 | 24.0 | 0.00 | 0.06 | 0.06 | 76 | 1010.9 |
| 20260831125404 | 68 | 241 | 15.0 | 29.0 | 0.00 | 0.06 | 0.06 | 74 | 1010.9 |
| 20260831124909 | 67 | 247 | 15.0 | 29.0 | 0.00 | 0.06 | 0.06 | 74 | 1010.6 |
| 20260831124403 | 68 | 227 | 14.0 | 28.0 | 0.00 | 0.06 | 0.06 | 74 | 1010.7 |
| 20260831123904 | 68 | 235 | 14.0 | 28.0 | 0.00 | 0.06 | 0.06 | 74 | 1010.6 |
| 20260831123357 | 68 | 251 | 11.0 | 24.0 | 0.00 | 0.06 | 0.06 | 74 | 1010.5 |
| 20260831122853 | 69 | 212 | 11.0 | 27.0 | 0.00 | 0.06 | 0.06 | 73 | 1010.6 |
| 20260831122345 | 69 | 236 | 12.0 | 27.0 | 0.00 | 0.06 | 0.06 | 71 | 1010.4 |
| 20260831121838 | 70 | 236 | 12.0 | 25.0 | 0.00 | 0.06 | 0.06 | 71 | 1010.5 |
| 20260831121335 | 69 | 229 | 14.0 | 25.0 | 0.00 | 0.06 | 0.06 | 71 | 1010.3 |
| 20260831120833 | 69 | 228 | 14.0 | 25.0 | 0.00 | 0.06 | 0.06 | 70 | 1010.2 |
| 20260831120333 | 69 | 281 | 15.0 | 33.0 | 0.00 | 0.06 | 0.06 | 70 | 1010.3 |
| 20260831115833 | 69 | 227 | 16.0 | 33.0 | 0.00 | 0.06 | 0.06 | 71 | 1010.3 |
| 20260831115331 | 68 | 236 | 15.0 | 29.0 | 0.00 | 0.06 | 0.06 | 72 | 1010.2 |
| 20260831115318 | 67 | 214 | 12.0 | 25.0 | 0.00 | 0.06 | 0.06 | 74 | 1010.1 |
| 20260831114817 | 67 | 278 | 12.0 | 25.0 | 0.00 | 0.06 | 0.06 | 75 | 1010.0 |
| 20260831114321 | 68 | 92 | 11.0 | 21.0 | 0.00 | 0.06 | 0.06 | 77 | 1010.0 |
| 20260831113334 | 68 | 219 | 9.0 | 21.0 | 0.00 | 0.06 | 0.06 | 78 | 1009.9 |
| 20260831113316 | 68 | 241 | 9.0 | 20.0 | 0.00 | 0.06 | 0.06 | 80 | 1009.8 |
| 20260831113041 | 68 | 192 | 8.0 | 20.0 | 0.00 | 0.06 | 0.06 | 80 | 1009.9 |
| 20260831112315 | 68 | 188 | 9.0 | 19.0 | 0.00 | 0.06 | 0.06 | 79 | 1009.7 |
| 20260831111332 | 68 | 252 | 10.0 | 20.0 | 0.00 | 0.06 | 0.06 | 80 | 1009.7 |
| 20260831110832 | 67 | 237 | 10.0 | 20.0 | 0.00 | 0.06 | 0.06 | 81 | 1009.7 |
| 20260831110333 | 67 | 270 | 9.0 | 18.0 | 0.00 | 0.06 | 0.06 | 83 | 1009.7 |
| 20260831105830 | 66 | 220 | 10.0 | 29.0 | 0.00 | 0.06 | 0.06 | 84 | 1009.8 |
| 20260831105333 | 67 | 221 | 11.0 | 29.0 | 0.00 | 0.06 | 0.06 | 80 | 1009.8 |
| 20260831104833 | 68 | 197 | 10.0 | 26.0 | 0.00 | 0.06 | 0.06 | 75 | 1009.7 |
| 20260831104327 | 68 | 226 | 11.0 | 23.0 | 0.00 | 0.06 | 0.06 | 74 | 1009.7 |
| 20260831103827 | 69 | 230 | 11.0 | 25.0 | 0.00 | 0.06 | 0.06 | 74 | 1009.5 |
| 20260831103325 | 69 | 257 | 10.0 | 25.0 | 0.00 | 0.06 | 0.06 | 74 | 1009.5 |
| 20260831102827 | 68 | 237 | 10.0 | 25.0 | 0.00 | 0.06 | 0.06 | 77 | 1009.4 |
| 20260831102327 | 67 | 245 | 10.0 | 25.0 | 0.00 | 0.06 | 0.06 | 76 | 1009.3 |
| 20260831101828 | 67 | 219 | 9.0 | 21.0 | 0.00 | 0.06 | 0.06 | 76 | 1009.3 |
| 20260831101326 | 67 | 220 | 10.0 | 23.0 | 0.00 | 0.06 | 0.06 | 77 | 1009.3 |
| 20260831100827 | 67 | 204 | 11.0 | 23.0 | 0.00 | 0.06 | 0.06 | 76 | 1009.4 |
| 20260831100326 | 68 | 236 | 10.0 | 21.0 | 0.00 | 0.06 | 0.06 | 76 | 1009.3 |
| 20260831095825 | 68 | 264 | 9.0 | 20.0 | 0.00 | 0.06 | 0.06 | 76 | 1009.3 |
| 20260831095327 | 68 | 202 | 8.0 | 20.0 | 0.00 | 0.06 | 0.06 | 76 | 1009.1 |
| 20260831094825 | 68 | 231 | 10.0 | 19.0 | 0.00 | 0.06 | 0.06 | 77 | 1009.2 |
| 20260831094327 | 67 | 227 | 12.0 | 24.0 | 0.00 | 0.06 | 0.06 | 78 | 1009.2 |
| 20260831093826 | 67 | 245 | 13.0 | 24.0 | 0.00 | 0.06 | 0.06 | 78 | 1009.2 |
| 20260831093327 | 67 | 213 | 11.0 | 28.0 | 0.00 | 0.06 | 0.06 | 79 | 1009.3 |
| 20260831092826 | 67 | 210 | 10.0 | 28.0 | 0.00 | 0.06 | 0.06 | 80 | 1009.1 |
| 20260831092325 | 66 | 220 | 13.0 | 24.0 | 0.00 | 0.06 | 0.06 | 79 | 1009.2 |
| 20260831091827 | 66 | 206 | 13.0 | 30.0 | 0.00 | 0.06 | 0.06 | 80 | 1009.0 |
| 20260831091327 | 66 | 212 | 10.0 | 30.0 | 0.00 | 0.06 | 0.06 | 81 | 1009.0 |
| 20260831090825 | 66 | 239 | 10.0 | 23.0 | 0.00 | 0.06 | 0.06 | 82 | 1008.9 |
| 20260831090327 | 66 | 146 | 12.0 | 23.0 | 0.00 | 0.06 | 0.06 | 82 | 1009.0 |
| 20260831085824 | 65 | 227 | 13.0 | 24.0 | 0.00 | 0.06 | 0.06 | 82 | 1008.9 |
| 20260831085326 | 66 | 214 | 11.0 | 27.0 | 0.00 | 0.06 | 0.06 | 83 | 1008.8 |
| 20260831084825 | 65 | 175 | 10.0 | 27.0 | 0.00 | 0.06 | 0.06 | 85 | 1008.9 |
| 20260831084324 | 65 | 165 | 11.0 | 24.0 | 0.00 | 0.06 | 0.06 | 86 | 1008.8 |
| 20260831083823 | 65 | 235 | 13.0 | 26.0 | 0.00 | 0.06 | 0.06 | 85 | 1008.7 |
| 20260831083802 | 64 | 181 | 11.0 | 26.0 | 0.00 | 0.06 | 0.06 | 85 | 1008.6 |
| 20260831083310 | 64 | 278 | 11.0 | 23.0 | 0.00 | 0.06 | 0.06 | 86 | 1008.7 |
| 20260831082327 | 64 | 225 | 13.0 | 26.0 | 0.00 | 0.06 | 0.06 | 85 | 1008.6 |
| 20260831082316 | 64 | 283 | 13.0 | 27.0 | 0.00 | 0.06 | 0.06 | 86 | 1008.5 |
| 20260831081758 | 64 | 149 | 10.0 | 27.0 | 0.00 | 0.06 | 0.06 | 86 | 1008.5 |
| 20260831081300 | 64 | 183 | 9.0 | 23.0 | 0.00 | 0.06 | 0.06 | 86 | 1008.6 |
| 20260831080318 | 64 | 198 | 10.0 | 20.0 | 0.00 | 0.07 | 0.06 | 86 | 1008.4 |
| 20260831075820 | 64 | 202 | 11.0 | 28.0 | 0.00 | 0.07 | 0.06 | 87 | 1008.5 |
| 20260831075317 | 64 | 202 | 12.0 | 31.0 | 0.00 | 0.07 | 0.06 | 87 | 1008.5 |
| 20260831074817 | 63 | 194 | 10.0 | 31.0 | 0.00 | 0.08 | 0.06 | 87 | 1008.5 |
| 20260831074320 | 64 | 203 | 9.0 | 22.0 | 0.00 | 0.09 | 0.06 | 88 | 1008.5 |
| 20260831073819 | 64 | 216 | 9.0 | 16.0 | 0.00 | 0.09 | 0.06 | 89 | 1008.5 |
| 20260831073318 | 63 | 219 | 9.0 | 17.0 | 0.00 | 0.09 | 0.06 | 89 | 1008.4 |
| 20260831072818 | 63 | 214 | 9.0 | 19.0 | 0.01 | 0.09 | 0.06 | 90 | 1008.5 |
| 20260831072317 | 63 | 177 | 8.0 | 19.0 | 0.02 | 0.09 | 0.06 | 90 | 1008.4 |
| 20260831071820 | 63 | 179 | 9.0 | 23.0 | 0.02 | 0.09 | 0.06 | 91 | 1008.5 |
| 20260831071802 | 62 | 193 | 9.0 | 23.0 | 0.02 | 0.09 | 0.06 | 91 | 1008.6 |
| 20260831070810 | 62 | 216 | 8.0 | 17.0 | 0.02 | 0.09 | 0.06 | 92 | 1008.6 |
| 20260831070309 | 62 | 229 | 8.0 | 18.0 | 0.02 | 0.09 | 0.06 | 92 | 1008.5 |
| 20260831065812 | 62 | 174 | 8.0 | 22.0 | 0.02 | 0.09 | 0.06 | 92 | 1008.6 |
| 20260831065312 | 62 | 185 | 9.0 | 22.0 | 0.02 | 0.09 | 0.06 | 92 | 1008.7 |
| 20260831064826 | 62 | 179 | 9.0 | 21.0 | 0.06 | 0.09 | 0.06 | 92 | 1008.7 |
| 20260831064811 | 62 | 153 | 10.0 | 21.0 | 0.06 | 0.09 | 0.06 | 92 | 1008.7 |
| 20260831063812 | 62 | 154 | 8.0 | 19.0 | 0.06 | 0.09 | 0.06 | 93 | 1008.7 |
| 20260831063309 | 62 | 210 | 7.0 | 17.0 | 0.06 | 0.09 | 0.06 | 92 | 1009.0 |
| 20260831062810 | 62 | 176 | 6.0 | 15.0 | 0.05 | 0.09 | 0.05 | 92 | 1008.9 |
| 20260831062310 | 62 | 174 | 6.0 | 13.0 | 0.04 | 0.08 | 0.04 | 92 | 1009.0 |
| 20260831061809 | 62 | 214 | 6.0 | 13.0 | 0.04 | 0.08 | 0.04 | 92 | 1009.0 |
| 20260831061309 | 62 | 155 | 5.0 | 10.0 | 0.04 | 0.08 | 0.04 | 91 | 1008.9 |
| 20260831060809 | 62 | 181 | 6.0 | 17.0 | 0.04 | 0.08 | 0.04 | 91 | 1009.0 |
| 20260831060313 | 63 | 163 | 7.0 | 17.0 | 0.04 | 0.08 | 0.04 | 90 | 1008.9 |
| 20260831055810 | 63 | 172 | 8.0 | 17.0 | 0.04 | 0.08 | 0.04 | 89 | 1008.8 |
| 20260831055754 | 63 | 202 | 9.0 | 17.0 | 0.03 | 0.07 | 0.02 | 88 | 1008.6 |
| 20260831055249 | 64 | 196 | 8.0 | 19.0 | 0.00 | 0.04 | 0.00 | 88 | 1008.7 |
| 20260831054753 | 64 | 204 | 7.0 | 19.0 | 0.00 | 0.04 | 0.00 | 88 | 1008.6 |
| 20260831053806 | 63 | 116 | 7.0 | 17.0 | 0.00 | 0.04 | 0.00 | 89 | 1008.6 |
| 20260831053308 | 63 | 160 | 6.0 | 17.0 | 0.00 | 0.04 | 0.00 | 89 | 1008.5 |
| 20260831052809 | 63 | 218 | 6.0 | 16.0 | 0.00 | 0.04 | 0.00 | 89 | 1008.5 |
| 20260831052307 | 63 | 193 | 8.0 | 17.0 | 0.00 | 0.05 | 0.00 | 89 | 1008.5 |
| 20260831051803 | 63 | 181 | 7.0 | 17.0 | 0.00 | 0.05 | 0.00 | 89 | 1008.6 |
| 20260831051741 | 63 | 188 | 8.0 | 15.0 | 0.00 | 0.05 | 0.00 | 90 | 1008.6 |
| 20260831051509 | 63 | 254 | 7.0 | 16.0 | 0.00 | 0.05 | 0.00 | 90 | 1008.6 |
| 20260831050309 | 63 | 181 | 7.0 | 15.0 | 0.00 | 0.05 | 0.00 | 90 | 1008.5 |
| 20260831050255 | 63 | 226 | 6.0 | 11.0 | 0.00 | 0.06 | 0.00 | 90 | 1008.5 |
| 20260831045748 | 63 | 170 | 7.0 | 16.0 | 0.00 | 0.06 | 0.00 | 90 | 1008.6 |
| 20260831045233 | 63 | 174 | 7.0 | 16.0 | 0.00 | 0.06 | 0.00 | 90 | 1008.6 |
| 20260831044303 | 63 | 164 | 6.0 | 14.0 | 0.00 | 0.06 | 0.00 | 90 | 1008.7 |
| 20260831043800 | 63 | 182 | 6.0 | 14.0 | 0.00 | 0.06 | 0.00 | 90 | 1008.7 |
| 20260831043257 | 63 | 218 | 6.0 | 16.0 | 0.00 | 0.06 | 0.00 | 90 | 1008.9 |
| 20260831042757 | 63 | 156 | 6.0 | 18.0 | 0.00 | 0.06 | 0.00 | 90 | 1008.7 |
| 20260831042257 | 63 | 205 | 7.0 | 18.0 | 0.00 | 0.06 | 0.00 | 89 | 1008.5 |
| 20260831041756 | 63 | 195 | 8.0 | 18.0 | 0.00 | 0.06 | 0.00 | 89 | 1008.5 |
| 20260831041736 | 63 | 202 | 9.0 | 18.0 | 0.00 | 0.06 | 0.00 | 89 | 1008.4 |
| 20260831040756 | 63 | 172 | 8.0 | 17.0 | 0.00 | 0.06 | 0.00 | 89 | 1008.4 |
| 20260831040256 | 63 | 186 | 8.0 | 16.0 | 0.00 | 0.06 | 0.00 | 89 | 1008.5 |
| 20260831035754 | 63 | 178 | 8.0 | 16.0 | 0.00 | 0.06 | 0.00 | 89 | 1008.4 |
| 20260831035255 | 63 | 209 | 7.0 | 14.0 | 0.00 | 0.06 | 0.00 | 89 | 1008.6 |
| 20260831034755 | 63 | 188 | 7.0 | 15.0 | 0.00 | 0.06 | 0.00 | 88 | 1008.5 |
| 20260831034254 | 64 | 209 | 7.0 | 15.0 | 0.00 | 0.06 | 0.00 | 88 | 1008.7 |
| 20260831033756 | 64 | 169 | 8.0 | 17.0 | 0.00 | 0.06 | 0.00 | 88 | 1008.6 |
| 20260831033257 | 64 | 180 | 7.0 | 17.0 | 0.00 | 0.06 | 0.00 | 88 | 1008.6 |
| 20260831033236 | 64 | 210 | 6.0 | 12.0 | 0.00 | 0.06 | 0.00 | 88 | 1008.7 |
| 20260831032256 | 64 | 187 | 6.0 | 12.0 | 0.00 | 0.06 | 0.00 | 88 | 1008.7 |
| 20260831031750 | 64 | 204 | 7.0 | 15.0 | 0.00 | 0.06 | 0.00 | 88 | 1008.7 |
| 20260831031734 | 64 | 194 | 7.0 | 15.0 | 0.00 | 0.06 | 0.00 | 88 | 1008.7 |
| 20260831030748 | 64 | 219 | 6.0 | 12.0 | 0.00 | 0.06 | 0.00 | 88 | 1008.8 |
| 20260831030733 | 64 | 219 | 6.0 | 14.0 | 0.00 | 0.06 | 0.00 | 88 | 1009.1 |
| 20260831030449 | 64 | 212 | 6.0 | 12.0 | 0.00 | 0.06 | 0.00 | 88 | 1008.9 |
| 20260831025240 | 64 | 191 | 6.0 | 14.0 | 0.00 | 0.06 | 0.00 | 88 | 1009.0 |
| 20260831024740 | 64 | 243 | 6.0 | 14.0 | 0.00 | 0.06 | 0.00 | 88 | 1009.1 |
| 20260831024239 | 64 | 203 | 6.0 | 14.0 | 0.00 | 0.07 | 0.00 | 89 | 1009.1 |
| 20260831023738 | 64 | 247 | 6.0 | 15.0 | 0.00 | 0.07 | 0.00 | 89 | 1009.1 |
| 20260831023238 | 64 | 205 | 7.0 | 15.0 | 0.00 | 0.07 | 0.00 | 89 | 1009.0 |
| 20260831023213 | 64 | 200 | 7.0 | 16.0 | 0.00 | 0.07 | 0.00 | 89 | 1009.0 |
| 20260831022238 | 64 | 218 | 6.0 | 16.0 | 0.00 | 0.07 | 0.00 | 90 | 1009.0 |
| 20260831021738 | 64 | 202 | 4.0 | 10.0 | 0.00 | 0.07 | 0.00 | 90 | 1009.0 |
| 20260831021240 | 64 | 151 | 4.0 | 8.0 | 0.00 | 0.08 | 0.00 | 90 | 1008.9 |
| 20260831021223 | 64 | 172 | 4.0 | 8.0 | 0.00 | 0.08 | 0.00 | 89 | 1008.8 |
| 20260831020712 | 64 | 187 | 5.0 | 11.0 | 0.00 | 0.08 | 0.00 | 89 | 1008.9 |
| 20260831015738 | 64 | 175 | 5.0 | 11.0 | 0.00 | 0.08 | 0.00 | 89 | 1008.9 |
| 20260831015240 | 64 | 183 | 5.0 | 11.0 | 0.00 | 0.08 | 0.00 | 89 | 1008.8 |
| 20260831014737 | 64 | 189 | 5.0 | 11.0 | 0.00 | 0.08 | 0.00 | 89 | 1008.8 |
| 20260831014725 | 64 | 179 | 5.0 | 8.0 | 0.00 | 0.08 | 0.00 | 89 | 1008.9 |
| 20260831013735 | 64 | 175 | 4.0 | 8.0 | 0.00 | 0.08 | 0.00 | 89 | 1008.9 |
| 20260831013703 | 64 | 176 | 4.0 | 9.0 | 0.00 | 0.08 | 0.00 | 88 | 1009.0 |
| 20260831013437 | 64 | 172 | 4.0 | 9.0 | 0.00 | 0.08 | 0.00 | 89 | 1009.1 |
| 20260831012230 | 64 | 192 | 4.0 | 8.0 | 0.00 | 0.08 | 0.00 | 88 | 1009.1 |
| 20260831011733 | 64 | 179 | 4.0 | 9.0 | 0.00 | 0.08 | 0.00 | 88 | 1009.1 |
| 20260831011234 | 64 | 185 | 4.0 | 9.0 | 0.00 | 0.08 | 0.00 | 88 | 1009.2 |
| 20260831010732 | 64 | 208 | 4.0 | 8.0 | 0.00 | 0.08 | 0.00 | 87 | 1009.3 |
| 20260831010232 | 64 | 191 | 4.0 | 8.0 | 0.00 | 0.08 | 0.00 | 87 | 1009.3 |
| 20260831005732 | 64 | 162 | 4.0 | 7.0 | 0.00 | 0.08 | 0.00 | 87 | 1009.3 |
| 20260831005232 | 64 | 202 | 4.0 | 7.0 | 0.00 | 0.08 | 0.00 | 87 | 1009.2 |
| 20260831004732 | 64 | 179 | 3.0 | 9.0 | 0.00 | 0.08 | 0.00 | 86 | 1009.4 |
| 20260831004234 | 64 | 186 | 3.0 | 9.0 | 0.00 | 0.08 | 0.00 | 86 | 1009.3 |
| 20260831003734 | 64 | 144 | 4.0 | 7.0 | 0.00 | 0.08 | 0.00 | 86 | 1009.3 |
| 20260831003232 | 64 | 197 | 4.0 | 9.0 | 0.00 | 0.08 | 0.00 | 86 | 1009.3 |
| 20260831002731 | 64 | 197 | 4.0 | 9.0 | 0.00 | 0.08 | 0.00 | 86 | 1009.4 |
| 20260831002719 | 65 | 230 | 4.0 | 8.0 | 0.00 | 0.08 | 0.00 | 86 | 1009.5 |
| 20260831001734 | 65 | 161 | 4.0 | 8.0 | 0.00 | 0.08 | 0.00 | 86 | 1009.5 |
| 20260831001233 | 65 | 233 | 4.0 | 8.0 | 0.00 | 0.08 | 0.00 | 86 | 1009.5 |
| 20260831000733 | 65 | 192 | 3.0 | 7.0 | 0.00 | 0.08 | 0.00 | 86 | 1009.7 |
| 20260831000229 | 65 | 156 | 3.0 | 8.0 | 0.00 | 0.08 | 0.00 | 86 | 1009.6 |
| 20260830235723 | 65 | 170 | 4.0 | 9.0 | 0.00 | 0.08 | 0.00 | 86 | 1009.6 |
| 20260830235217 | 65 | 197 | 4.0 | 9.0 | 0.00 | 0.08 | 0.00 | 85 | 1009.6 |
| 20260830234716 | 65 | 170 | 3.0 | 7.0 | 0.00 | 0.08 | 0.00 | 85 | 1009.8 |
| 20260830234213 | 65 | 198 | 2.0 | 7.0 | 0.00 | 0.08 | 0.00 | 85 | 1009.8 |
| 20260830233714 | 65 | 197 | 3.0 | 7.0 | 0.00 | 0.08 | 0.00 | 84 | 1009.8 |
| 20260830233215 | 65 | 185 | 3.0 | 7.0 | 0.00 | 0.08 | 0.00 | 84 | 1009.8 |
| 20260830232712 | 65 | 229 | 3.0 | 8.0 | 0.00 | 0.08 | 0.00 | 85 | 1009.8 |
| 20260830232215 | 65 | 196 | 4.0 | 10.0 | 0.00 | 0.08 | 0.00 | 85 | 1009.8 |
| 20260830232146 | 65 | 180 | 3.0 | 10.0 | 0.00 | 0.08 | 0.00 | 85 | 1009.8 |
| 20260830231214 | 65 | 195 | 4.0 | 10.0 | 0.00 | 0.08 | 0.00 | 86 | 1009.8 |
| 20260830230714 | 65 | 170 | 5.0 | 10.0 | 0.00 | 0.08 | 0.00 | 86 | 1009.9 |
| 20260830230651 | 65 | 166 | 4.0 | 9.0 | 0.00 | 0.08 | 0.00 | 87 | 1009.8 |
| 20260830225714 | 65 | 189 | 4.0 | 9.0 | 0.00 | 0.08 | 0.00 | 87 | 1009.8 |
| 20260830225212 | 65 | 170 | 3.0 | 9.0 | 0.00 | 0.08 | 0.00 | 88 | 1009.8 |
| 20260830224712 | 65 | 179 | 4.0 | 10.0 | 0.00 | 0.08 | 0.00 | 88 | 1009.8 |
| 20260830224659 | 65 | 199 | 4.0 | 10.0 | 0.00 | 0.08 | 0.00 | 88 | 1009.9 |
| 20260830223712 | 65 | 179 | 4.0 | 9.0 | 0.00 | 0.08 | 0.00 | 88 | 1009.8 |
| 20260830223211 | 65 | 190 | 4.0 | 9.0 | 0.00 | 0.08 | 0.00 | 88 | 1009.9 |
| 20260830222710 | 65 | 181 | 3.0 | 7.0 | 0.00 | 0.08 | 0.00 | 87 | 1009.9 |
| 20260830222206 | 65 | 175 | 1.0 | 6.0 | 0.00 | 0.08 | 0.00 | 87 | 1009.9 |
| 20260830221708 | 65 | 163 | 1.0 | 2.0 | 0.00 | 0.08 | 0.00 | 86 | 1009.9 |
| 20260830221206 | 65 | 163 | 1.0 | 4.0 | 0.00 | 0.08 | 0.00 | 86 | 1010.0 |
| 20260830221147 | 65 | 163 | 2.0 | 4.0 | 0.00 | 0.08 | 0.00 | 86 | 1010.0 |
| 20260830220643 | 65 | 137 | 2.0 | 4.0 | 0.00 | 0.08 | 0.00 | 85 | 1010.0 |
| 20260830215732 | 65 | 166 | 2.0 | 5.0 | 0.00 | 0.08 | 0.08 | 85 | 1010.0 |
| 20260830215709 | 65 | 163 | 2.0 | 5.0 | 0.00 | 0.08 | 0.08 | 85 | 1010.0 |
| 20260830215126 | 66 | 153 | 2.0 | 5.0 | 0.00 | 0.08 | 0.08 | 84 | 1010.1 |
| 20260830214204 | 66 | 162 | 2.0 | 5.0 | 0.00 | 0.08 | 0.08 | 84 | 1010.1 |
| 20260830213705 | 66 | 172 | 3.0 | 5.0 | 0.00 | 0.08 | 0.08 | 84 | 1010.2 |
| 20260830213204 | 66 | 177 | 3.0 | 5.0 | 0.00 | 0.08 | 0.08 | 84 | 1010.3 |
| 20260830212706 | 66 | 167 | 3.0 | 5.0 | 0.00 | 0.08 | 0.08 | 83 | 1010.3 |
| 20260830212202 | 67 | 204 | 3.0 | 7.0 | 0.00 | 0.08 | 0.08 | 83 | 1010.4 |
| 20260830211705 | 67 | 166 | 4.0 | 7.0 | 0.00 | 0.08 | 0.08 | 83 | 1010.3 |
| 20260830211203 | 67 | 188 | 4.0 | 8.0 | 0.00 | 0.08 | 0.08 | 82 | 1010.5 |
| 20260830211141 | 67 | 202 | 4.0 | 8.0 | 0.00 | 0.08 | 0.08 | 82 | 1010.5 |
| 20260830210648 | 67 | 182 | 3.0 | 6.0 | 0.00 | 0.08 | 0.08 | 82 | 1010.5 |
| 20260830205704 | 67 | 174 | 3.0 | 6.0 | 0.00 | 0.08 | 0.08 | 82 | 1010.4 |
| 20260830205203 | 67 | 162 | 4.0 | 7.0 | 0.00 | 0.08 | 0.08 | 82 | 1010.4 |
| 20260830204705 | 68 | 187 | 5.0 | 9.0 | 0.00 | 0.08 | 0.08 | 81 | 1010.4 |
| 20260830204645 | 68 | 206 | 6.0 | 13.0 | 0.00 | 0.08 | 0.08 | 81 | 1010.5 |
| 20260830203704 | 68 | 175 | 6.0 | 13.0 | 0.00 | 0.08 | 0.08 | 82 | 1010.5 |
| 20260830203205 | 67 | 146 | 5.0 | 11.0 | 0.00 | 0.08 | 0.08 | 82 | 1010.4 |
| 20260830202704 | 67 | 154 | 3.0 | 10.0 | 0.00 | 0.08 | 0.08 | 83 | 1010.4 |
| 20260830202659 | 67 | 178 | 2.0 | 5.0 | 0.00 | 0.08 | 0.08 | 83 | 1010.5 |
| 20260830202125 | 67 | 131 | 2.0 | 6.0 | 0.00 | 0.08 | 0.08 | 82 | 1010.5 |
| 20260830201907 | 67 | 166 | 2.0 | 6.0 | 0.00 | 0.08 | 0.08 | 82 | 1010.5 |
| 20260830200702 | 67 | 161 | 1.0 | 3.0 | 0.00 | 0.08 | 0.08 | 82 | 1010.5 |
| 20260830200204 | 67 | 193 | 1.0 | 4.0 | 0.00 | 0.13 | 0.08 | 82 | 1010.6 |
| 20260830195704 | 67 | 172 | 1.0 | 5.0 | 0.00 | 0.42 | 0.08 | 82 | 1010.6 |
| 20260830195204 | 67 | 166 | 1.0 | 5.0 | 0.00 | 0.54 | 0.08 | 82 | 1010.6 |
| 20260830195145 | 68 | 166 | 1.0 | 3.0 | 0.00 | 0.55 | 0.08 | 82 | 1010.6 |
| 20260830194641 | 68 | 166 | 1.0 | 3.0 | 0.00 | 0.57 | 0.08 | 81 | 1010.6 |
| 20260830193703 | 68 | 166 | 0.0 | 2.0 | 0.00 | 0.60 | 0.08 | 81 | 1010.6 |
| 20260830193637 | 68 | 166 | 1.0 | 4.0 | 0.00 | 0.61 | 0.08 | 81 | 1010.6 |
| 20260830192706 | 68 | 166 | 1.0 | 4.0 | 0.00 | 0.61 | 0.08 | 81 | 1010.6 |
| 20260830192205 | 68 | 148 | 1.0 | 3.0 | 0.00 | 0.64 | 0.08 | 81 | 1010.7 |
| 20260830191706 | 68 | 148 | 1.0 | 3.0 | 0.00 | 0.65 | 0.08 | 80 | 1010.6 |